Погода в Целинном

Россия / Саратовская область     51°20′36″N   48°31′12″E
темп.,
°C
ветер,
м/с
пор.,
м/с
влажн.,
%
обл.,
%
осадки,
мм/ч
давл.,
гПа
погр.,
м
16 апреля, пт
пт1601:00+13всв455397 0.0 101665
04:00+12всв4760100 0.0 1016101
07:00+12всв4761100 0.0 1015127
10:00+17в5744100 0.0 1016380
13:00+20в5632100 0.0 1016871
16:00+21в5529100 0.0 10171669
19:00+18св474692 0.0 1017133
22:00+15св334958 0.0 101837
17 апреля, сб
сб1701:00+13св465451 0.0 101873
04:00+12св33585 0.0 101934
07:00+11св36600 0.0 1019110
10:00+17всв56432 0.0 1019454
13:00+21в453238 0.0 10191475
16:00+21всв4430100 0.0 10192111
19:00+18всв3645100 0.0 101894
22:00+15вюв3457100 0.0 101958
18 апреля, вс
вс1801:00+14ю3469100 0.6 101981
04:00+11зсз3883100 0.7 1019217
07:00+12сз2383100 0.2 1019124
10:00+13вюв2175100 0.4 1020571
13:00+15ююв2367100 0.6 1019843
16:00+15зсз3263100 1.0 1019799
19:00+14с3473100 0.0 1019260
22:00+12св3587100 0.1 1020124
19 апреля, пн
пн1901:00+11св4791100 0.1 1020225
04:00+10всв4883100 0.1 1020221
07:00+10всв61067100 0.0 1020443
10:00+9всв61178100 0.3 1021464
13:00+10всв6974100 0.4 1021633
16:00+9всв61177100 0.4 1022538
19:00+10всв71273100 0.1 1022551
22:00+8в9158276 0.1 1023617
20 апреля, вт
вт2001:00+7в101578100 0.1 1023666
04:00+6в91570100 0.1 1024632
07:00+6вюв9156598 0.0 1025741
10:00+7вюв111558100 0.0 1025756
13:00+9вюв101552100 0.0 1024912
16:00+13юв101347100 0.0 10231216
19:00+11вюв91550100 0.0 10221010
22:00+9вюв101750100 0.0 1022741